Location: Allentsteig
(48.6833°N, 15.3167°E)
Time: 01:55:54
(UTC+00:00)

SJ 16-02 - Pass Details

Date: 18 September 2020
Orbit: 606 x 616 km, 75.0° (Epoch: 31 October)

Event Time Altitude Azimuth Distance (km) Brightness Sun altitude
Rises 17:58:26 0° 218° (SW) 2,855 5.1 -9.6°
Reaches altitude 10° 18:00:45 10° 225° (SW) 1,954 4.4 -10.0°
Maximum altitude 18:04:55 43° 297° (WNW) 865 2.7 -10.7°
Drops below altitude 10° 18:09:06 10° 10° (N) 1,967 4.0 -11.4°
Sets 18:11:27 0° 17° (NNE) 2,876 4.8 -11.7°
